EW2919 Weather Reports


Display with metric or nautical units.
time (UTC)temp
F
wind
direction
speed
MPH
gust
MPH
rain 1hr
in
rain 24hr
in
rain mn
in
humidity
%
barometer
mb
20260502233005 56 297 0.0 2.0 0.00 0.00 0.00 58 1012.9
20260502230014 58 297 0.0 1.0 0.00 0.00 0.00 55 1012.6
20260502224517 60 297 0.0 2.0 0.00 0.00 0.00 50 1012.4
20260502223022 61 297 1.0 2.0 0.00 0.00 0.00 43 1012.1
20260502221506 62 261 0.0 3.0 0.00 0.00 0.00 42 1011.9
20260502213018 63 261 0.0 3.0 0.00 0.00 0.00 43 1011.7
20260502211534 63 317 0.0 2.0 0.00 0.00 0.00 46 1011.7
20260502201524 60 28 1.0 3.0 0.00 0.00 0.00 48 1012.1
20260502200004 59 178 0.0 2.0 0.00 0.00 0.00 48 1012.4
20260502194504 59 26 0.0 3.0 0.00 0.00 0.00 48 1012.8
20260502193004 59 114 0.0 2.0 0.00 0.00 0.00 45 1012.9
20260502191504 58 81 1.0 4.0 0.00 0.00 0.00 46 1013.1
20260502183017 55 129 0.0 4.0 0.00 0.00 0.00 50 1013.5
20260502123023 52 38 0.0 2.0 0.00 0.00 0.00 76 1013.9
20260502121524 52 66 0.0 2.0 0.00 0.00 0.00 75 1014.1
20260502114506 51 39 1.0 3.0 0.00 0.00 0.00 77 1013.6
20260502113011 51 61 0.0 3.0 0.00 0.00 0.00 79 1013.8
20260502104534 51 264 0.0 2.0 0.00 0.00 0.00 79 1013.5
20260502103009 51 265 0.0 0.0 0.00 0.00 0.00 78 1013.8
20260502091514 51 336 0.0 2.0 0.00 0.00 0.00 82 1013.8
20260502071522 52 26 0.0 0.0 0.00 0.00 0.00 86 1012.6
20260502070014 52 26 0.0 0.0 0.00 0.00 0.00 85 1012.6
20260502064514 52 26 0.0 0.0 0.00 0.00 0.00 85 1012.8
20260502063026 52 26 0.0 2.0 0.00 0.00 0.00 84 1013.1
20260502061516 52 25 0.0 0.0 0.00 0.00 0.00 84 1013.2
20260502060021 52 25 0.0 0.0 0.00 0.00 0.00 83 1013.3
20260502054522 52 25 0.0 2.0 0.00 0.00 0.00 84 1013.3
20260502053026 52 26 0.0 2.0 0.00 0.00 0.00 84 1013.3
20260502051546 52 182 0.0 0.0 0.00 0.00 0.00 83 1012.9
20260502050012 52 182 0.0 0.0 0.00 0.00 0.00 83 1013.0
20260502044504 52 182 0.0 0.0 0.00 0.00 0.00 82 1013.1
20260502043007 53 182 0.0 0.0 0.00 0.00 0.00 81 1013.1
20260502041511 53 177 0.0 0.0 0.00 0.00 0.00 80 1013.1
20260502040014 53 177 0.0 2.0 0.00 0.00 0.00 80 1013.1
20260502034519 53 177 0.0 2.0 0.00 0.00 0.00 79 1013.2
20260502033004 54 177 0.0 2.0 0.00 0.00 0.00 79 1013.3
20260502031508 54 175 0.0 2.0 0.00 0.00 0.00 79 1013.5
20260502030014 54 284 0.0 2.0 0.00 0.00 0.00 78 1013.4
20260502024515 54 216 0.0 2.0 0.00 0.00 0.00 78 1013.6
20260502023016 55 274 0.0 5.0 0.00 0.00 0.00 78 1013.4
20260502021506 55 299 0.0 4.0 0.00 0.00 0.00 78 1013.4
20260502020010 55 213 0.0 3.0 0.00 0.00 0.00 77 1013.4
20260502014522 56 297 0.0 4.0 0.00 0.00 0.00 77 1013.4
20260502013011 56 160 0.0 3.0 0.00 0.00 0.00 75 1013.4
20260502010006 57 186 0.0 3.0 0.00 0.00 0.00 73 1013.1
20260502004514 57 223 1.0 6.0 0.00 0.00 0.00 71 1012.7
20260502003018 58 180 2.0 5.0 0.00 0.00 0.00 69 1012.7
20260502001513 58 182 0.0 5.0 0.00 0.00 0.00 68 1012.4
20260501234510 60 207 1.0 5.0 0.00 0.00 0.00 63 1012.0